Location: Arrington
(35.8681°N, 86.7092°W)
Time: 17:51:08
(UTC+00:00)

Cosmos 1459 Rocket - Pass Details

Date: 23 November 2019
Orbit: 938 x 999 km, 83.0° (Epoch: 06 December)

Event Time Altitude Azimuth Distance (km) Brightness Sun altitude
Rises 09:56:23 0° 184° (S) 3,630 7.0 -31.0°
Reaches altitude 10° 09:58:51 10° 184° (S) 2,696 6.3 -30.5°
Maximum altitude 10:05:03 88° 96° (E) 983 3.9 -29.2°
Drops below altitude 10° 10:11:23 10° 7° (N) 2,753 6.4 -28.0°
Sets 10:13:55 0° 7° (N) 3,711 7.1 -27.5°
